[[{"header":{"parameterUnit":"m.s-1","parameterCategory":1,"la1":30.2991,"la2":30.254,"lo1":-89.0895,"lo2":-89.0444,"dy":0.0017,"dx":0.0017,"nx":28,"ny":28,"refTime":"2026-02-09T03:00:00:Z","depth":0,"parameterNumber":2,"parameterNumberName":"U-component_of_WINDS"},"data":[0,0,0,0,0,0,0,0,0,0,0,0,0,0,0,0,0,0,0,0,0,0,0,0,0,0,0,0,0,0,0,0,0,0,0,0,0,0,0,0,0,0,0,0,0,0,0,0,0,0,0,0,0,0,0,0,0,0,0.6126,0.6127,0,0.6212,0.6213,0.6214,0.6257,0.6257,0.6257,0.6257,0.6345,0.6347,0.6349,0,0,0,0,0,0,0,0,0,0,0,0,0,0.6002,0.6004,0.6126,0.6127,0.6128,0.6211,0.6213,0.6214,0.6257,0.6257,0.6257,0.6257,0.6344,0.6347,0.635,0,0,0,0,0,0,0,0,0,0,0,0,0,0.6068,0.6005,0.6126,0.616,0.6164,0.6211,0.6213,0.6214,0.6257,0.6257,0.6257,0.6257,0.6343,0.6347,0.635,0.6371,0,0,0.6361,0.6362,0,0,0,0,0,0,0,0,0.6065,0.6073,0.6154,0.6158,0.6162,0.6224,0.6201,0.6267,0.6257,0.6222,0.6257,0.6257,0.6305,0.6311,0.6327,0.6375,0.6378,0.6361,0.6363,0.6365,0.6366,0,0,0,0,0,0,0,0.606,0.607,0.616,0.6155,0.616,0.6171,0.6181,0.6214,0.6262,0.6225,0.6228,0.6237,0.6307,0.6324,0.633,0.638,0.6361,0.6364,0.6366,0.6367,0.645,0.645,0,0,0,0,0,0,0.605,0.6065,0.6157,0.6163,0.6112,0.6173,0.6184,0.6204,0.6262,0.627,0.6237,0.6239,0.6318,0.6325,0.6333,0.6362,0.6365,0.6368,0.637,0.645,0.645,0.645,0,0,0,0,0,0,0.6047,0.6057,0.6154,0.6115,0.6128,0.6175,0.6197,0.6205,0.6222,0.6271,0.628,0.6246,0.6318,0.6328,0.6361,0.6365,0.6369,0.6373,0.645,0.645,0.645,0.6418,0,0,0,0,0,0,0.6043,0.6056,0.6064,0.6115,0.613,0.618,0.6198,0.6207,0.6228,0.6231,0.6281,0.629,0.6319,0.6356,0.6365,0.637,0.6375,0.6449,0.645,0.645,0.6419,0.6417,0.6416,0,0,0,0,0,0.6039,0.6052,0.6064,0.6075,0.6141,0.618,0.6189,0.6222,0.6228,0.6237,0.6268,0.6288,0.6363,0.6359,0.6369,0.6376,0.6449,0.645,0.645,0.642,0.6418,0.6416,0,0,0,0,0,0,0.6,0.6059,0.6074,0.6103,0.6137,0.6188,0.6199,0.6219,0.6251,0.6253,0.6293,0.6304,0.6333,0.6358,0.6352,0.6399,0.6408,0.6411,0.6382,0.638,0.6379,0.6372,0.6378,0,0,0,0,0,0.5995,0.6022,0.6072,0.6094,0.611,0.6151,0.617,0.6193,0.6229,0.6243,0.6277,0.6312,0.6343,0.6363,0.6395,0.6423,0.6435,0.6433,0.6431,0.6429,0.6431,0.6449,0.6449,0.6451,0.6451,0.6451,0,0,0.5985,0.6021,0.6035,0.6087,0.6115,0.6143,0.6163,0.6191,0.6212,0.6248,0.6281,0.6307,0.6348,0.6379,0.6395,0.6401,0.6433,0.643,0.6428,0.6431,0.6449,0.6449,0.6449,0.6451,0.6451,0.6451,0,0,0.5981,0.601,0.6032,0.606,0.6103,0.6131,0.6136,0.6184,0.6203,0.6237,0.6265,0.6291,0.6344,0.6373,0.6394,0.6402,0.6421,0.6411,0.6402,0.6419,0.6419,0.6419,0.6423,0.6423,0.6412,0.6412,0.6412,0,0.5963,0.6005,0.6041,0.6067,0.609,0.6123,0.6146,0.6172,0.6222,0.6237,0.6243,0.6311,0.6342,0.638,0.6382,0.6398,0.6406,0.6406,0.6416,0.6417,0.6417,0.6421,0.6422,0.6411,0.6411,0.6411,0.6411,0,0.5982,0.6011,0.6023,0.6072,0.6096,0.612,0.6159,0.6179,0.62,0.6228,0.6263,0.63,0.6341,0.6351,0.6372,0.6394,0.6396,0.6408,0.6418,0.6415,0.6419,0.6421,0.6409,0.6409,0.641,0.641,0,0,0.5956,0.6024,0.6028,0.6051,0.6101,0.6124,0.6151,0.619,0.6207,0.6241,0.6265,0.6309,0.6322,0.6346,0.637,0.6385,0.639,0.6396,0.6398,0.6394,0.6417,0.6408,0.6409,0.6403,0.6404,0.6404,0.6414,0,0.596,0.6008,0.6041,0.6077,0.6105,0.6137,0.616,0.6194,0.6221,0.6248,0.6278,0.6309,0.6323,0.6338,0.6354,0.6386,0.6395,0.6386,0.6426,0.6427,0.6416,0.6411,0.6401,0.6409,0.6416,0.6416,0.6416,0,0.597,0.6003,0.6042,0.609,0.6103,0.6123,0.6163,0.6188,0.6227,0.6246,0.6273,0.6298,0.6329,0.6336,0.6378,0.6371,0.639,0.6408,0.6409,0.6415,0.6422,0.6417,0.6412,0.6413,0.6419,0.6419,0.6419,0,0.5948,0.6003,0.6033,0.6052,0.6108,0.6122,0.6146,0.6185,0.6207,0.6242,0.6256,0.6294,0.6314,0.6343,0.6378,0.638,0.6417,0.6427,0.6434,0.6433,0.6441,0.644,0.6439,0.6452,0.6452,0.6452,0.6452,0,0.5949,0.5972,0.6024,0.6043,0.607,0.6108,0.6133,0.616,0.6195,0.622,0.625,0.6273,0.6318,0.6346,0.6374,0.6405,0.6414,0.6431,0.6438,0.6428,0.6426,0.6441,0.6442,0.6452,0.6452,0.6452,0.6452,0,0.5929,0.5965,0.6001,0.6052,0.6065,0.6082,0.6126,0.6146,0.6174,0.6206,0.6216,0.626,0.6296,0.6333,0.6381,0.64,0.6431,0.644,0.6418,0.6422,0.6427,0.6426,0.6436,0.644,0.6449,0.6449,0.6449,0,0.5928,0.5946,0.5999,0.6018,0.6041,0.6071,0.6094,0.6132,0.6154,0.6201,0.6215,0.6253,0.6285,0.6341,0.6378,0.6415,0.6426,0.6427,0.6432,0.6422,0.6427,0.6426,0.6429,0.6426,0.6425,0.6425,0.6425,0,0.5921,0.5938,0.597,0.6007,0.6034,0.6065,0.6098,0.6112,0.6157,0.618,0.6217,0.6242,0.6292,0.6329,0.6371,0.6397,0.6419,0.6423,0.6427,0.6418,0.6404,0.6412,0.6414,0.6423,0.6423,0.6423,0.6423,0.6423,0.5911,0.5929,0.5969,0.6004,0.6032,0.6062,0.6084,0.6115,0.6146,0.6189,0.621,0.6247,0.6287,0.6345,0.6371,0.6401,0.6407,0.6412,0.6414,0.6414,0.6412,0.6399,0.6408,0.6408,0.6408,0.6409,0.6409,0,0.5907,0.5935,0.5966,0.6011,0.6038,0.6056,0.6093,0.6115,0.6147,0.6182,0.6213,0.6256,0.6292,0.6333,0.6372,0.6388,0.64,0.6398,0.6397,0.6403,0.6404,0.6397,0.6388,0.6388,0.6388,0.6388,0.6388,0.6388,0.5908,0.594,0.5962,0.6009,0.6037,0.6073,0.6093,0.6121,0.6149,0.6195,0.6226,0.6252,0.629,0.6332,0.6367,0.6378,0.6391,0.6387,0.6401,0.6401,0.6403,0.6404,0.6398,0.6389,0.6389,0.6397,0.6397,0.6397]},{"header":{"parameterUnit":"m.s-1","parameterCategory":1,"la1":30.2991,"la2":30.254,"lo1":-89.0895,"lo2":-89.0444,"dy":0.0017,"dx":0.0017,"nx":28,"ny":28,"refTime":"2026-02-09T03:00:00:Z","depth":0,"parameterNumber":3,"parameterNumberName":"V-component_of_WINDS"},"data":[0,0,0,0,0,0,0,0,0,0,0,0,0,0,0,0,0,0,0,0,0,0,0,0,0,0,0,0,0,0,0,0,0,0,0,0,0,0,0,0,0,0,0,0,0,0,0,0,0,0,0,0,0,0,0,0,0,0,0.1786,0.1785,0,0.1697,0.1696,0.1695,0.1632,0.1632,0.1631,0.1631,0.1541,0.1539,0.1537,0,0,0,0,0,0,0,0,0,0,0,0,0,0.1904,0.1902,0.1786,0.1785,0.1784,0.1697,0.1696,0.1694,0.1633,0.1632,0.1631,0.1631,0.1542,0.1539,0.1537,0,0,0,0,0,0,0,0,0,0,0,0,0,0.1837,0.1901,0.1786,0.1742,0.1737,0.1697,0.1696,0.1694,0.1633,0.1632,0.1631,0.1631,0.1542,0.154,0.1537,0.1533,0,0,0.1528,0.1526,0,0,0,0,0,0,0,0,0.1841,0.1833,0.175,0.1745,0.174,0.1675,0.1704,0.164,0.1633,0.1672,0.1631,0.163,0.1586,0.158,0.1565,0.1529,0.1525,0.1527,0.1526,0.1524,0.1524,0,0,0,0,0,0,0,0.1846,0.1837,0.175,0.1749,0.1742,0.1727,0.1717,0.1692,0.1635,0.1669,0.1664,0.1654,0.1583,0.1568,0.1562,0.1524,0.1528,0.1525,0.1523,0.1522,0.1481,0.1482,0,0,0,0,0,0,0.1857,0.1841,0.1753,0.1748,0.179,0.1726,0.1714,0.1696,0.1635,0.1624,0.1655,0.1652,0.1573,0.1565,0.1559,0.1551,0.1524,0.1522,0.152,0.1481,0.1482,0.1482,0,0,0,0,0,0,0.186,0.185,0.1757,0.1793,0.178,0.1725,0.1705,0.1695,0.1679,0.1624,0.1614,0.1649,0.1572,0.1563,0.154,0.1547,0.152,0.1518,0.148,0.1481,0.1482,0.1535,0,0,0,0,0,0,0.1864,0.1851,0.1849,0.1793,0.1778,0.174,0.1705,0.1694,0.1674,0.1669,0.1616,0.1607,0.1571,0.1545,0.1537,0.1542,0.1515,0.1479,0.148,0.1482,0.1532,0.1538,0.1542,0,0,0,0,0,0.1868,0.1868,0.1849,0.1839,0.1774,0.174,0.1731,0.169,0.1675,0.1672,0.1637,0.1608,0.1547,0.1543,0.1534,0.1538,0.1478,0.148,0.1481,0.153,0.1537,0.1542,0,0,0,0,0,0,0.1925,0.1859,0.1838,0.182,0.1786,0.173,0.1725,0.1698,0.1668,0.1664,0.1614,0.1603,0.1586,0.1559,0.1556,0.1532,0.1509,0.1509,0.155,0.1555,0.156,0.1567,0.1513,0,0,0,0,0,0.1936,0.1913,0.1857,0.1846,0.183,0.1781,0.1764,0.1735,0.1698,0.1684,0.1647,0.1613,0.1586,0.1569,0.1541,0.1528,0.1516,0.1527,0.1532,0.1536,0.1537,0.1529,0.1533,0.1487,0.1487,0.1487,0,0,0.1958,0.1919,0.1907,0.1857,0.1827,0.1805,0.1769,0.1747,0.1731,0.168,0.1657,0.1629,0.1587,0.157,0.156,0.1547,0.1547,0.1538,0.1542,0.154,0.1531,0.1536,0.154,0.1488,0.1488,0.1488,0,0,0.1986,0.1954,0.1941,0.1913,0.1868,0.1835,0.1833,0.178,0.176,0.1735,0.1697,0.1677,0.1632,0.1604,0.1584,0.1602,0.1575,0.1595,0.162,0.1614,0.1617,0.162,0.1628,0.1631,0.1595,0.1595,0.1595,0,0.2018,0.1983,0.1939,0.1919,0.1899,0.1852,0.1839,0.1814,0.1763,0.175,0.1736,0.1679,0.1647,0.1623,0.1628,0.1613,0.1609,0.16,0.162,0.1623,0.1625,0.1631,0.1634,0.1598,0.1598,0.1597,0.1597,0,0.2026,0.2002,0.1998,0.195,0.1928,0.1913,0.1866,0.185,0.1823,0.1792,0.1768,0.1729,0.1693,0.1685,0.1658,0.1657,0.1651,0.1629,0.1606,0.1633,0.1638,0.164,0.1602,0.1601,0.16,0.16,0,0,0.2087,0.2015,0.2014,0.1992,0.194,0.1921,0.1904,0.1868,0.1856,0.1823,0.1807,0.177,0.175,0.1728,0.1697,0.1691,0.171,0.167,0.1669,0.168,0.1707,0.1724,0.1728,0.1691,0.1691,0.1692,0.1711,0,0.2108,0.2074,0.2033,0.2013,0.1992,0.1947,0.1932,0.1899,0.187,0.1848,0.1815,0.179,0.1765,0.1752,0.1743,0.1709,0.1715,0.1707,0.1677,0.1677,0.1689,0.173,0.1748,0.1768,0.1712,0.1713,0.1713,0,0.2127,0.2096,0.2074,0.2025,0.2014,0.2001,0.1966,0.1945,0.1907,0.1886,0.1861,0.1829,0.1809,0.1788,0.1761,0.1757,0.1742,0.1723,0.1723,0.1719,0.1697,0.1728,0.1773,0.1776,0.1716,0.1715,0.1715,0,0.2175,0.2128,0.2108,0.2091,0.2033,0.2025,0.2,0.1961,0.1943,0.1912,0.19,0.1867,0.185,0.1825,0.1786,0.1774,0.1763,0.1738,0.1746,0.1747,0.1746,0.1746,0.179,0.1736,0.1736,0.1736,0.1736,0,0.2202,0.2191,0.2129,0.2118,0.2104,0.2058,0.2045,0.2017,0.1983,0.1965,0.1925,0.191,0.1858,0.1837,0.1805,0.1788,0.178,0.1763,0.1755,0.1767,0.177,0.1757,0.1755,0.1736,0.1736,0.1736,0.1736,0,0.2253,0.2211,0.2188,0.2135,0.2121,0.2114,0.2068,0.2056,0.2024,0.2003,0.1995,0.1946,0.1919,0.1877,0.1837,0.1817,0.1805,0.1791,0.1818,0.1813,0.1823,0.1823,0.186,0.1863,0.1807,0.1808,0.1808,0,0.2273,0.2264,0.221,0.2195,0.2172,0.2149,0.213,0.2085,0.2067,0.2023,0.2016,0.1986,0.1959,0.1918,0.1879,0.1849,0.1835,0.185,0.183,0.1843,0.1836,0.1837,0.1837,0.1855,0.1856,0.1857,0.1857,0,0.2314,0.2294,0.2268,0.2236,0.2214,0.2186,0.2156,0.2146,0.2095,0.2077,0.2049,0.2028,0.1988,0.1959,0.1923,0.1899,0.187,0.1864,0.1864,0.1876,0.1892,0.1885,0.1831,0.1863,0.1862,0.1862,0.1862,0.1861,0.2351,0.234,0.2301,0.2274,0.2247,0.222,0.2206,0.2173,0.2148,0.2112,0.2087,0.2061,0.2023,0.1973,0.195,0.1929,0.1916,0.1917,0.1917,0.1918,0.1922,0.1895,0.1922,0.1922,0.1922,0.1922,0.1922,0,0.239,0.2363,0.2338,0.2298,0.2277,0.2251,0.2217,0.2201,0.2178,0.2146,0.2121,0.2089,0.2061,0.202,0.1989,0.198,0.1966,0.1974,0.1974,0.1969,0.1935,0.1938,0.1986,0.1986,0.1985,0.1985,0.1985,0.1985,0.2408,0.2389,0.2365,0.2332,0.2305,0.2279,0.2262,0.2237,0.2211,0.2178,0.2154,0.2128,0.2092,0.2058,0.2032,0.2021,0.2011,0.2023,0.2008,0.1977,0.1971,0.1966,0.1969,0.2021,0.2021,0.2044,0.2044,0.2044]}]]